EW9119 Weather Reports


Display with metric or nautical units.
time (UTC)temp
F
wind
direction
speed
MPH
gust
MPH
rain 1hr
in
rain 24hr
in
rain mn
in
humidity
%
barometer
mb
20260831013027 76 104 0.0 0.0 0.00 0.00 0.00 65 1018.1
20260831011521 77 104 0.0 0.0 0.00 0.00 0.00 66 1018.0
20260831010017 77 113 0.0 0.0 0.00 0.00 0.00 68 1017.6
20260831004513 77 111 0.0 0.0 0.00 0.00 0.00 69 1017.5
20260831003008 78 111 0.0 0.0 0.00 0.00 0.00 70 1017.4
20260831001506 79 111 0.0 0.0 0.00 0.00 0.00 70 1017.3
20260831000003 80 111 0.0 0.0 0.00 0.00 0.00 70 1017.4
20260830234559 81 111 0.0 0.0 0.00 0.00 0.00 69 1017.4
20260830233104 81 111 0.0 0.0 0.00 0.00 0.00 68 1017.4
20260830231555 82 111 0.0 0.0 0.00 0.00 0.00 68 1017.4
20260830230045 83 111 0.0 0.0 0.00 0.00 0.00 67 1017.3
20260830224600 83 94 0.0 0.0 0.00 0.00 0.00 66 1017.4
20260830223037 83 94 0.0 0.0 0.00 0.00 0.00 65 1017.2
20260830221532 83 95 0.0 0.0 0.00 0.00 0.00 64 1017.1
20260830220029 84 119 0.0 0.0 0.00 0.00 0.00 64 1017.1
20260830214534 83 317 0.0 0.0 0.00 0.00 0.00 63 1017.0
20260830213020 84 107 0.0 0.0 0.00 0.00 0.00 63 1017.1
20260830211516 84 152 0.0 0.0 0.00 0.00 0.00 62 1017.2
20260830210020 85 161 0.0 0.0 0.00 0.00 0.00 61 1017.3
20260830204507 85 168 0.0 0.0 0.00 0.00 0.00 58 1017.3
20260830203003 85 136 0.0 0.0 0.00 0.00 0.00 57 1017.3
20260830201557 85 256 0.0 0.0 0.00 0.00 0.00 57 1017.5
20260830200053 86 200 0.0 0.0 0.00 0.00 0.00 58 1017.6
20260830194549 86 10 0.0 0.0 0.00 0.00 0.00 60 1017.7
20260830193045 85 360 0.0 0.0 0.00 0.00 0.00 61 1017.9
20260830191539 84 154 0.0 0.0 0.00 0.00 0.00 63 1018.1
20260830190035 83 299 0.0 0.0 0.00 0.00 0.00 67 1018.3
20260830184531 83 299 0.0 0.0 0.00 0.00 0.00 65 1018.7
20260830183027 83 298 0.0 0.0 0.00 0.00 0.00 64 1019.1
20260830181522 85 337 0.0 0.0 0.00 0.00 0.00 61 1019.2
20260830180018 85 321 0.0 0.0 0.00 0.00 0.00 61 1019.4
20260830174513 85 151 0.0 0.0 0.00 0.00 0.00 62 1019.7
20260830173009 85 146 0.0 0.0 0.00 0.00 0.00 65 1020.0
20260830171504 84 333 0.0 0.0 0.00 0.00 0.00 64 1020.1
20260830170104 81 335 0.0 0.0 0.00 0.00 0.00 69 1020.4
20260830164604 80 333 0.0 0.0 0.00 0.00 0.00 69 1020.6
20260830163052 82 5 0.0 0.0 0.00 0.00 0.00 67 1020.7
20260830161548 81 140 0.0 0.0 0.00 0.00 0.00 68 1020.9
20260830160043 80 167 0.0 0.0 0.00 0.00 0.00 69 1020.9
20260830154539 81 26 0.0 0.0 0.00 0.00 0.00 66 1021.0
20260830153035 81 98 1.0 4.0 0.00 0.00 0.00 68 1021.1
20260830151529 80 304 0.0 0.0 0.00 0.00 0.00 68 1021.3
20260830150024 76 324 0.0 0.0 0.00 0.00 0.00 66 1021.3
20260830144520 77 304 0.0 0.0 0.00 0.00 0.00 63 1021.4
20260830143016 76 129 0.0 0.0 0.00 0.00 0.00 61 1021.4
20260830141522 74 118 0.0 0.0 0.00 0.00 0.00 1 1021.5
20260830140007 71 161 0.0 0.0 0.00 0.00 0.00 1 1021.7
20260830134503 71 162 0.0 0.0 0.00 0.00 0.00 1 1021.7
20260830133059 71 162 0.0 0.0 0.00 0.00 0.00 1 1021.9
20260830131554 70 162 0.0 0.0 0.00 0.00 0.00 1 1021.7
20260830124545 69 162 0.0 0.0 0.00 0.00 0.00 1 1021.7
20260830123056 69 162 0.0 0.0 0.00 0.00 0.00 1 1021.7
20260830121537 68 162 0.0 0.0 0.00 0.00 0.00 1 1021.6
20260830120033 68 162 0.0 0.0 0.00 0.00 0.00 1 1021.4
20260830114531 67 162 0.0 0.0 0.00 0.00 0.00 1 1021.2
20260830113030 67 162 0.0 0.0 0.00 0.00 0.00 1 1021.1
20260830111530 67 162 0.0 0.0 0.00 0.00 0.00 1 1020.9
20260830110029 67 162 0.0 0.0 0.00 0.00 0.00 1 1020.7
20260830104525 67 162 0.0 0.0 0.00 0.00 0.00 1 1020.6
20260830103021 67 162 0.0 0.0 0.00 0.00 0.00 1 1020.5
20260830101515 67 162 0.0 0.0 0.00 0.00 0.00 1 1020.4
20260830100014 67 162 0.0 0.0 0.00 0.00 0.00 1 1020.2
20260830094523 67 162 0.0 0.0 0.00 0.00 0.00 1 1020.1
20260830093009 67 162 0.0 0.0 0.00 0.00 0.00 1 1019.9
20260830091505 66 162 0.0 0.0 0.00 0.00 0.00 1 1020.0
20260830090004 66 163 0.0 0.0 0.00 0.00 0.00 1 1020.0
20260830084605 66 163 0.0 0.0 0.00 0.00 0.00 1 1020.2
20260830083057 66 163 0.0 0.0 0.00 0.00 0.00 1 1020.3
20260830081558 66 163 0.0 0.0 0.00 0.00 0.00 1 1020.3
20260830080047 67 163 0.0 0.0 0.00 0.00 0.00 1 1020.3
20260830074545 67 163 0.0 0.0 0.00 0.00 0.00 1 1020.4
20260830073048 67 163 0.0 0.0 0.00 0.00 0.00 1 1020.4
20260830071549 67 163 0.0 0.0 0.00 0.00 0.00 1 1020.4
20260830070035 67 163 0.0 0.0 0.00 0.00 0.00 1 1020.5
20260830064528 68 163 0.0 0.0 0.00 0.00 0.00 1 1020.7
20260830063033 68 163 0.0 0.0 0.00 0.00 0.00 1 1020.5
20260830061521 68 163 0.0 0.0 0.00 0.00 0.00 1 1020.5
20260830060020 69 163 0.0 0.0 0.00 0.00 0.00 1 1020.5
20260830054525 69 163 0.0 0.0 0.00 0.00 0.00 1 1020.6
20260830053006 69 163 0.0 0.0 0.00 0.00 0.00 1 1020.8
20260830051600 69 163 0.0 0.0 0.00 0.00 0.00 1 1020.9
20260830050056 70 163 0.0 0.0 0.00 0.00 0.00 1 1021.0
20260830044552 70 163 0.0 0.0 0.00 0.00 0.00 1 1021.2
20260830043048 70 163 0.0 0.0 0.00 0.00 0.00 1 1021.2
20260830041602 70 163 0.0 0.0 0.00 0.00 0.00 1 1021.1
20260830040042 70 163 0.0 0.0 0.00 0.00 0.00 1 1021.3
20260830034535 71 163 0.0 0.0 0.00 0.00 0.00 1 1021.2
20260830033031 71 163 0.0 0.0 0.00 0.00 0.00 1 1021.2
20260830031526 71 163 0.0 0.0 0.00 0.00 0.00 1 1021.0
20260830030021 72 163 0.0 0.0 0.00 0.00 0.00 1 1020.8
20260830024521 72 163 0.0 0.0 0.00 0.00 0.00 10 1020.6
20260830023012 72 163 0.0 0.0 0.00 0.00 0.00 18 1020.4
20260830021508 73 162 0.0 0.0 0.00 0.00 0.00 25 1020.1
20260830020003 73 162 0.0 0.0 0.00 0.00 0.00 33 1020.0
20260830014600 74 162 0.0 0.0 0.00 0.00 0.00 35 1019.8